Evans Head Observation History
Time Wind Speed Temp Pressure Rel. Hum Rain
17/10:00pm SW 10-15 kts 14.1°c 1019.4 hPa 92% 8.8mm
17/09:30pm WSW 11-17 kts 14.0°c 1019.5 hPa 93% 8.8mm
17/09:00pm WSW 10-15 kts 14.0°c 1019.7 hPa 94% 8.8mm
17/08:30pm WSW 10-13 kts 13.9°c 1019.5 hPa 94% 8.6mm
17/08:00pm SW 10-17 kts 14.0°c 1019.4 hPa 93% 8.0mm
17/07:30pm SSW 13-22 kts 13.9°c 1019.2 hPa 93% 8.0mm
17/07:00pm SSW 15-22 kts 14.0°c 1018.9 hPa 93% 7.4mm
17/06:30pm SSW 15-23 kts 14.0°c 1019.2 hPa 93% 7.0mm
17/06:01pm SSW 15-25 kts 14.4°c 1019.0 hPa 92% 6.0mm
17/06:00pm SSW 16-25 kts 14.5°c 1019.0 hPa 92% 6.0mm
17/05:58pm SSW 15-25 kts 14.4°c 1019.1 hPa 92% 6.0mm
17/05:30pm SSW 13-20 kts 15.1°c 1018.6 hPa 93% 5.8mm
17/05:00pm SSW 11-17 kts 15.5°c 1018.3 hPa 93% 5.2mm
17/04:30pm SSW 13-20 kts 16.1°c 1018.0 hPa 91% 5.0mm
17/04:00pm S 13-19 kts 17.3°c 1017.5 hPa 91% 5.0mm
17/03:30pm SSW 11-17 kts 17.9°c 1017.4 hPa 92% 4.8mm
17/03:00pm SSW 10-15 kts 18.2°c 1017.1 hPa 93% 4.8mm
17/02:30pm SSW 10-15 kts 18.7°c 1016.9 hPa 93% 4.8mm
17/02:00pm SSW 11-15 kts 18.4°c 1017.1 hPa 95% 4.8mm
17/01:30pm SSW 9-14 kts 17.9°c 1017.3 hPa 94% 3.4mm
17/01:00pm SSW 10-16 kts 18.5°c 1017.5 hPa 94% 2.0mm
17/12:30pm SSW 7-9 kts 18.5°c 1017.5 hPa 94% 1.6mm
17/12:00pm SSW 7-10 kts 18.8°c 1018.1 hPa 93% 1.2mm
17/11:30am S 8-11 kts 18.7°c 1018.5 hPa 94% 1.0mm
17/11:00am S 7-9 kts 18.3°c 1018.7 hPa 93% 0.6mm
17/10:30am SSW 8-12 kts 18.5°c 1019.2 hPa 93% 0.2mm
17/10:00am SSW 8-11 kts 18.3°c 1019.7 hPa 93% 0.2mm
17/09:30am WSW 7-10 kts 17.8°c 1020.1 hPa 92% 0.2mm
17/09:00am WSW 7-11 kts 18.0°c 1019.9 hPa 89% 0.0mm
17/08:30am SW 5-8 kts 18.2°c 1019.8 hPa 87% 0.0mm
17/08:00am WSW 8-12 kts 18.3°c 1019.8 hPa 86% 0.0mm
17/07:30am SW 6-11 kts 18.1°c 1019.4 hPa 85% 0.0mm
17/07:00am SW 8-12 kts 17.9°c 1019.3 hPa 84% 0.0mm
17/06:30am SW 7-12 kts 17.9°c 1019.0 hPa 79% 0.0mm
17/06:00am WSW 7-11 kts 18.1°c 1018.6 hPa 75% 0.0mm
17/05:30am WSW 7-9 kts 18.3°c 1018.7 hPa 72% 0.0mm
17/05:00am WSW 7-11 kts 18.3°c 1018.6 hPa 73% 0.0mm
17/04:30am WSW 7-10 kts 18.4°c 1018.5 hPa 73% 0.0mm
17/04:00am W 7-10 kts 18.3°c 1018.8 hPa 73% 0.0mm
17/03:30am WSW 7-9 kts 18.2°c 1018.6 hPa 73% 0.0mm
17/03:00am WSW 7-10 kts 18.4°c 1018.5 hPa 72% 0.0mm
17/02:30am WSW 8-10 kts 18.6°c 1018.9 hPa 73% 0.0mm
17/02:00am WSW 9-11 kts 18.5°c 1019.1 hPa 73% 0.0mm
17/01:30am W 7-9 kts 18.2°c 1019.3 hPa 74% 0.0mm
17/01:00am WSW 7-9 kts 18.0°c 1019.3 hPa 75% 0.0mm
17/12:30am SW 7-11 kts 18.4°c 1019.4 hPa 74% 0.0mm
17/12:00am WSW 7-9 kts 18.6°c 1019.9 hPa 71% 0.0mm
Time Wind Speed Temp Pressure Rel. Hum Rain
16/11:30pm WSW 6-9 kts 18.8°c 1020.1 hPa 70% 0.0mm
16/11:00pm SW 7-10 kts 19.5°c 1020.3 hPa 68% 0.0mm
16/10:30pm SSE 11-15 kts 20.5°c 1020.5 hPa 69% 0.0mm
16/10:00pm SSE 11-15 kts 20.8°c 1020.7 hPa 67% 0.0mm
16/09:30pm SSE 12-18 kts 21.0°c 1020.6 hPa 66% 0.0mm
16/09:00pm SSE 13-18 kts 21.2°c 1020.5 hPa 66% 0.0mm
16/08:30pm SSE 13-20 kts 21.2°c 1020.5 hPa 67% 0.0mm
16/08:00pm SSE 15-21 kts 20.9°c 1020.3 hPa 67% 0.0mm
16/07:30pm SSE 15-20 kts 20.8°c 1020.1 hPa 68% 0.0mm
16/07:00pm SSE 15-21 kts 20.7°c 1019.7 hPa 66% 0.0mm
16/06:30pm SSE 15-23 kts 20.8°c 1019.3 hPa 67% 0.0mm
16/06:00pm SSE 14-19 kts 20.8°c 1018.9 hPa 66% 0.0mm
16/05:30pm SSE 16-21 kts 21.0°c 1018.6 hPa 65% 0.0mm
16/05:00pm SSE 16-23 kts 21.3°c 1018.2 hPa 62% 0.0mm
16/04:30pm SSE 15-20 kts 21.6°c 1017.9 hPa 63% 0.0mm
16/04:00pm SSE 15-21 kts 22.2°c 1017.6 hPa 64% 0.0mm
16/03:30pm SSE 15-21 kts 22.6°c 1017.4 hPa 61% 0.0mm
16/03:00pm SSE 15-20 kts 23.3°c 1017.2 hPa 58% 0.0mm
16/02:30pm SSE 15-20 kts 24.0°c 1017.0 hPa 59% 0.0mm
16/02:00pm SSE 14-21 kts 24.3°c 1016.9 hPa 55% 0.0mm
16/01:30pm SSE 16-22 kts 24.4°c 1017.0 hPa 54% 0.0mm
16/01:00pm SSE 14-21 kts 25.2°c 1017.0 hPa 55% 0.0mm
16/12:30pm SSE 15-20 kts 24.9°c 1017.1 hPa 57% 0.0mm
16/12:00pm SSE 16-21 kts 25.1°c 1017.2 hPa 60% 0.0mm
16/11:30am SSE 15-20 kts 25.3°c 1017.4 hPa 56% 0.0mm
16/11:00am SSE 13-18 kts 25.3°c 1017.7 hPa 64% 0.0mm
16/10:30am SSE 14-19 kts 25.1°c 1017.8 hPa 66% 0.0mm
16/10:00am S 11-18 kts 24.5°c 1017.9 hPa 63% 0.0mm
16/09:30am S 10-16 kts 24.1°c 1017.7 hPa 63% 0.0mm
16/09:00am SSW 7-12 kts 23.1°c 1017.4 hPa 63% 0.0mm
16/08:30am WSW 7-10 kts 21.4°c 1017.3 hPa 62% 0.0mm
16/08:00am WSW 6-11 kts 20.1°c 1017.0 hPa 64% 0.0mm
16/07:30am S 7-9 kts 20.0°c 1016.7 hPa 68% 0.0mm
16/07:00am W 5-6 kts 19.2°c 1015.9 hPa 68% 0.0mm
16/06:30am WNW 4-6 kts 18.4°c 1015.4 hPa 69% 0.0mm
16/06:00am WNW 4-6 kts 18.6°c 1015.1 hPa 68% 0.0mm
16/05:30am NW 5-7 kts 18.1°c 1014.8 hPa 73% 0.0mm
16/05:00am SW 4-7 kts 19.0°c 1014.7 hPa 74% 0.0mm
16/04:30am WNW 1-4 kts 18.3°c 1014.4 hPa 78% 0.0mm
16/04:00am NNW 5-7 kts 18.0°c 1014.2 hPa 78% 0.0mm
16/03:30am NW 3-5 kts 18.3°c 1014.2 hPa 74% 0.0mm
16/03:00am CALM 0-3 kts 18.5°c 1014.0 hPa 73% 0.0mm
16/02:30am ENE 4-5 kts 18.5°c 1014.0 hPa 73% 0.0mm
16/02:00am WNW 3-5 kts 18.7°c 1014.2 hPa 72% 0.0mm
16/01:30am NNW 4-8 kts 17.5°c 1014.2 hPa 79% 0.0mm
16/01:00am NNW 5-7 kts 16.2°c 1014.3 hPa 83% 0.0mm
16/12:30am NNW 5-7 kts 16.4°c 1014.4 hPa 82% 0.0mm
16/12:00am NNW 6-8 kts 16.7°c 1014.7 hPa 80% 0.0mm
Time Wind Speed Temp Pressure Rel. Hum Rain
15/11:30pm NNW 6-8 kts 17.3°c 1014.8 hPa 77% 0.0mm
15/11:00pm NNW 5-7 kts 17.1°c 1015.0 hPa 77% 0.0mm
15/10:30pm N 6-9 kts 17.6°c 1015.3 hPa 75% 0.0mm
15/10:00pm NNW 7-9 kts 17.7°c 1015.4 hPa 76% 0.0mm
15/09:30pm NNW 6-7 kts 17.7°c 1015.4 hPa 78% 0.0mm
15/09:00pm N 6-7 kts 17.9°c 1015.4 hPa 78% 0.0mm
15/08:30pm N 6-8 kts 18.1°c 1015.3 hPa 79% 0.0mm
15/08:00pm N 7-9 kts 18.4°c 1015.1 hPa 80% 0.0mm
15/07:30pm N 7-8 kts 18.3°c 1014.9 hPa 82% 0.0mm
15/07:00pm N 6-7 kts 18.9°c 1014.6 hPa 80% 0.0mm
15/06:30pm N 7-8 kts 19.9°c 1014.2 hPa 76% 0.0mm
15/06:00pm N 6-8 kts 20.5°c 1014.1 hPa 73% 0.0mm
15/05:30pm N 6-8 kts 21.0°c 1013.9 hPa 71% 0.0mm
15/05:00pm N 7-9 kts 22.0°c 1013.7 hPa 67% 0.0mm
15/04:30pm NNE 6-9 kts 23.1°c 1013.6 hPa 61% 0.0mm
15/04:00pm NNE 5-9 kts 24.0°c 1013.5 hPa 58% 0.0mm
15/03:30pm ENE 7-11 kts 24.7°c 1013.6 hPa 58% 0.0mm
15/03:00pm ENE 6-8 kts 25.3°c 1013.7 hPa 49% 0.0mm
15/02:30pm E 6-9 kts 25.6°c 1013.7 hPa 51% 0.0mm
15/02:00pm E 6-7 kts 25.9°c 1013.7 hPa 46% 0.0mm
15/01:30pm ESE 6-8 kts 25.7°c 1014.0 hPa 49% 0.0mm
15/01:00pm ESE 7-9 kts 25.6°c 1014.2 hPa 51% 0.0mm
15/12:30pm E 5-7 kts 25.6°c 1014.5 hPa 51% 0.0mm
15/12:00pm E 6-9 kts 24.7°c 1015.0 hPa 50% 0.0mm
15/11:30am SE 5-7 kts 26.1°c 1015.4 hPa 52% 0.0mm
15/11:00am S 3-5 kts 25.5°c 1015.6 hPa 46% 0.0mm
15/10:30am WNW 1-4 kts 24.6°c 1016.1 hPa 46% 0.0mm
15/10:00am NNW 3-5 kts 25.6°c 1016.3 hPa 45% 0.0mm
15/09:30am WNW 5-8 kts 24.2°c 1016.3 hPa 49% 0.0mm
15/09:00am NW 7-10 kts 23.0°c 1016.2 hPa 48% 0.0mm
15/08:30am NW 7-12 kts 21.8°c 1016.3 hPa 54% 0.0mm
15/08:00am NW 7-12 kts 20.7°c 1016.2 hPa 59% 0.0mm
15/07:30am NW 6-8 kts 19.6°c 1016.0 hPa 69% 0.0mm
15/07:00am NNW 6-7 kts 17.5°c 1016.0 hPa 76% 0.0mm
15/06:30am NW 7-10 kts 16.7°c 1015.6 hPa 76% 0.0mm
15/06:00am WNW 7-11 kts 16.4°c 1015.3 hPa 77% 0.0mm
15/05:30am NW 7-12 kts 16.9°c 1015.0 hPa 75% 0.0mm
15/05:00am NW 7-10 kts 16.9°c 1014.6 hPa 77% 0.0mm
15/04:30am NNW 5-9 kts 16.6°c 1014.4 hPa 77% 0.0mm
15/04:00am NNW 7-10 kts 16.8°c 1014.3 hPa 78% 0.0mm
15/03:30am NNW 7-11 kts 16.6°c 1014.3 hPa 79% 0.0mm
15/03:00am NNW 8-13 kts 16.3°c 1014.3 hPa 81% 0.0mm
15/02:30am NNW 8-11 kts 16.5°c 1014.7 hPa 79% 0.0mm
15/02:00am N 6-10 kts 16.1°c 1015.0 hPa 79% 0.0mm
15/01:30am NNW 6-9 kts 15.7°c 1015.5 hPa 80% 0.0mm
15/01:00am NNW 6-8 kts 16.2°c 1015.7 hPa 81% 0.0mm
15/12:30am N 6-8 kts 15.7°c 1015.8 hPa 84% 0.0mm
15/12:00am N 7-10 kts 16.2°c 1016.1 hPa 83% 0.0mm